Regional Weather Roundup
Issued by NWS

Home | Current Version | Previous Version | Graphics & Text | Print | Product List | Glossary On
Versions: 1 2 3 4 5 6 7 8 9 10 11 12 13 14 15 16 17 18 19 20 21 22 23 24 25 26 27 28 29 30 31 32 33 34 35 36 37 38 39 40 41 42 43 44 45 46 47 48 49 50
000
ASUS43 KLSX 280107
RWRMO

WEATHER SUMMARY FOR MISSOURI
NATIONAL WEATHER SERVICE SPRINGFIELD MO
700 PM CST SAT DEC 27 2014

NOTE: "FAIR" INDICATES FEW OR NO CLOUDS BELOW 12,000 FEET WITH NO
       SIGNIFICANT WEATHER AND/OR OBSTRUCTIONS TO VISIBILITY.
       CURRENT SKY AND/OR WEATHER CONDITIONS ARE NOT AVAILABLE FOR
       CHILLICOTHE AND FARMINGTON.

MOZ001>031-035>038-043-044-053-054-280200-
...NORTHERN AND WESTERN MISSOURI...

CITY           SKY/WX    TMP DP  RH WIND       PRES   REMARKS
KANSAS CTY INT CLEAR     26  19  74 NW3       30.25S
KANSAS C DTWN  CLEAR     30  20  66 NW6       30.27R WCI  24
LEE`S SUMMIT   CLEAR     27  19  72 CALM      30.26R
ST JOSEPH      CLEAR     24  18  77 W3        30.28S
CHILLICOTHE      N/A     30  21  69 NW6       30.28R WCI  24
KIRKSVILLE     CLOUDY    29  24  82 NW10      30.23R WCI  20

$$
MOZ066>068-077>081-088>096-101>105-280200-
...SOUTHWEST MISSOURI...

CITY           SKY/WX    TMP DP  RH WIND       PRES   REMARKS
SPRINGFIELD    CLOUDY    31  28  89 NW9       30.23S WCI  23
JOPLIN         CLEAR     29  24  82 CALM      30.27R

$$
MOZ032>034-039>042-045>050-055>058-069>072-280200-
...CENTRAL MISSOURI...

CITY           SKY/WX    TMP DP  RH WIND       PRES   REMARKS
COLUMBIA       CLOUDY    32  27  81 NW12      30.22S WCI  23
JEFFERSON CITY CLOUDY    34  27  75 NW5       30.25R WCI  30
ROLLA          CLOUDY    32  30  92 NW8       30.19S WCI  25
SEDALIA        CLOUDY    32  25  75 NW13      30.25R WCI  22
WHITEMAN AFB   MOCLDY    28  21  74 N10       30.25R WCI  19
WARRENSBURG    CLEAR     28  23  80 NW5       30.26F WCI  23
OSAGE BEACH    CLOUDY    34  28  80 N5        30.23R WCI  30

$$
MOZ051-052-059>065-280200-
...EAST CENTRAL MISSOURI...

CITY           SKY/WX    TMP DP  RH WIND       PRES   REMARKS
ST LOUIS INTL  CLOUDY    36  34  93 NW5       30.19F
SPIRIT OF STL  CLOUDY    36  34  93 W5        30.20S
ST CHARLES     CLOUDY    35  34  96 W6        30.20F

$$
MOZ072>076-082>087-097>100-106>115-280200-
...SOUTH CENTRAL AND SOUTHEAST MISSOURI...

CITY           SKY/WX    TMP DP  RH WIND       PRES   REMARKS
CAPE GIRARDEAU LGT RAIN  41  40  96 N12       30.17R FOG
POPLAR BLUFF   HVY RAIN  43  40  89 N9        30.18R FOG
WEST PLAINS    CLOUDY    36  32  85 NW8       30.20R WCI  30

$$


USA.gov is the U.S. government's official web portal to all federal, state and local government web resources and services.